M I D A S
Marine Information and Data Acquisition System
Tripno 1932 of the Zeeleeuw from 2010-08-05 06:40:01 to 2010-08-05 14:38:50
Back to CruiseResearch ActivitiesStationsMapUnderway DataData graphs

EquipmentUnitsComments
TimeDGPSUTC
LatitudeDGPSDM.mWGS84
LongitudeDGPSDM.mWGS84
SpeedMeteo Stationm/sRelative wind speed
DirectionMeteo StationdegRelative wind direction
TemperatureMeteo Stationdeg CelciusAir temperature
PressureMeteo StationPaAtmospheric pressure
HumidityMeteo Station%Relative humidity
Missing or incorrect values are displayed as -999
Metereological data collected by the RV Zeeleeuw from 2010-08-05 02:50:21 to 2010-08-05 14:42:14
                                                                                    Next 1000 lines
Time Latitude Longitude Speed Direction Temperature Pressure Humidity
2010-08-05 02:50:31 51°13.657 2°55.962 3.1 22 16.5 100730 42
2010-08-05 02:50:36 51°13.659 2°55.962 3.1 -999 16.5 100730 42
2010-08-05 02:50:41 51°13.66 2°55.962 1.9 21 16.6 100730 42
2010-08-05 02:50:46 51°13.662 2°55.962 2.1 74 16.6 100730 42
2010-08-05 02:50:51 51°13.663 2°55.961 5.1 28 16.6 100730 43
2010-08-05 02:50:56 51°13.664 2°55.961 4.8 82 16.6 100730 43
2010-08-05 02:51:01 51°13.664 2°55.961 4.9 20 16.5 100730 43
2010-08-05 02:51:06 51°13.664 2°55.961 4.4 60 16.5 100730 43
2010-08-05 02:51:10 51°13.664 2°55.961 3.7 20 16.6 100730 44
2010-08-05 02:51:16 51°13.665 2°55.961 3 81 16.6 100730 44
2010-08-05 02:51:21 51°13.665 2°55.961 2.4 23 16.5 100730 42
2010-08-05 02:51:26 51°13.665 2°55.961 3.2 59 16.5 100730 42
2010-08-05 02:51:30 51°13.665 2°55.961 1.9 20 16.5 100730 43
2010-08-05 02:51:36 51°13.665 2°55.961 3.7 76 16.5 100730 43
2010-08-05 02:51:41 51°13.665 2°55.961 2.1 28 16.5 100730 42
2010-08-05 02:51:46 51°13.665 2°55.961 2.9 53 16.5 100730 42
2010-08-05 02:51:50 51°13.665 2°55.961 2.8 23 16.5 100730 43
2010-08-05 02:51:56 51°13.665 2°55.961 2.4 76 16.5 100730 43
2010-08-05 02:52:01 51°13.665 2°55.961 3.6 21 16.5 100730 44
2010-08-05 02:52:06 51°13.662 2°55.962 3 83 16.5 100730 44
2010-08-05 02:52:11 51°13.661 2°55.962 2.5 29 16.5 100730 42
2010-08-05 02:52:16 51°13.66 2°55.961 3.5 83 16.5 100730 42
2010-08-05 02:52:21 51°13.66 2°55.961 2.8 24 16.5 100730 42
2010-08-05 02:52:26 51°13.659 2°55.961 2.5 53 16.5 100730 42
2010-08-05 02:52:30 51°13.659 2°55.961 2.6 20 16.5 100720 43
2010-08-05 02:52:36 51°13.659 2°55.961 2.8 82 16.5 100720 43
2010-08-05 02:52:41 51°13.659 2°55.961 3.2 23 16.5 100730 42
2010-08-05 02:52:46 51°13.659 2°55.961 3 50 16.5 100730 42
2010-08-05 02:52:50 51°13.657 2°55.961 3.3 29 16.5 100730 42
2010-08-05 02:52:56 51°13.658 2°55.961 4.8 53 16.5 100730 42
2010-08-05 02:53:01 51°13.658 2°55.962 4.8 28 16.5 100730 42
2010-08-05 02:53:06 51°13.659 2°55.962 3.9 52 16.5 100730 42
2010-08-05 02:53:11 51°13.659 2°55.962 3.4 21 16.5 100730 43
2010-08-05 02:53:16 51°13.659 2°55.962 3.5 52 16.5 100730 43
2010-08-05 02:53:21 51°13.659 2°55.962 2.6 21 16.5 100730 42
2010-08-05 02:53:26 51°13.66 2°55.963 3.4 57 16.5 100730 42
2010-08-05 02:53:31 51°13.66 2°55.962 2.6 19 16.5 100720 42
2010-08-05 02:53:36 51°13.66 2°55.962 3.9 75 16.5 100720 42
2010-08-05 02:53:41 51°13.657 2°55.962 2.7 21 16.5 100730 42
2010-08-05 02:53:46 51°13.656 2°55.962 3.7 53 16.5 100730 42
2010-08-05 02:53:51 51°13.657 2°55.963 3 28 16.5 100730 43
2010-08-05 02:53:56 51°13.658 2°55.963 3.1 81 16.5 100730 43
2010-08-05 02:54:01 51°13.66 2°55.963 2.6 20 16.5 100730 43
2010-08-05 02:54:06 51°13.661 2°55.963 4.6 77 16.5 100730 43
2010-08-05 02:54:10 51°13.661 2°55.963 4.3 29 16.5 100730 44
2010-08-05 02:54:16 51°13.661 2°55.964 3.7 59 16.5 100730 44
2010-08-05 02:54:21 51°13.662 2°55.964 4.5 22 16.5 100730 43
2010-08-05 02:54:26 51°13.664 2°55.964 4.7 83 16.5 100730 43
2010-08-05 02:54:31 51°13.667 2°55.964 4.4 21 16.5 100730 43
2010-08-05 02:54:36 51°13.67 2°55.964 3.9 -999 16.5 100730 43
2010-08-05 02:54:41 51°13.671 2°55.964 4.1 30 16.5 100730 43
2010-08-05 02:54:46 51°13.672 2°55.964 4.7 76 16.5 100730 43
2010-08-05 02:54:51 51°13.672 2°55.964 5.4 22 16.5 100730 43
2010-08-05 02:54:56 51°13.671 2°55.964 4.7 80 16.5 100730 43
2010-08-05 02:55:01 51°13.672 2°55.964 5.1 19 16.5 100730 42
2010-08-05 02:55:06 51°13.671 2°55.964 3.4 51 16.5 100730 42
2010-08-05 02:55:10 51°13.671 2°55.964 3.5 26 16.5 100730 42
2010-08-05 02:55:16 51°13.67 2°55.963 4 79 16.5 100730 42
2010-08-05 02:55:21 51°13.669 2°55.963 2.9 29 16.5 100730 42
2010-08-05 02:55:26 51°13.669 2°55.963 2.1 54 16.5 100730 42
2010-08-05 02:55:30 51°13.669 2°55.963 2.5 25 16.5 100730 44
2010-08-05 02:55:36 51°13.667 2°55.963 3.9 76 16.5 100730 44
2010-08-05 02:55:41 51°13.663 2°55.963 3.9 27 16.5 100730 43
2010-08-05 02:55:46 51°13.662 2°55.963 3.5 81 16.5 100730 43
2010-08-05 02:55:51 51°13.661 2°55.962 2.9 23 16.5 100730 44
2010-08-05 02:55:56 51°13.661 2°55.962 2.6 77 16.5 100730 44
2010-08-05 02:56:01 51°13.662 2°55.963 3.4 28 16.5 100730 42
2010-08-05 02:56:06 51°13.662 2°55.963 4.8 52 16.5 100730 42
2010-08-05 02:56:11 51°13.662 2°55.963 5 21 16.5 100730 42
2010-08-05 02:56:16 51°13.662 2°55.963 3 80 16.5 100730 42
2010-08-05 02:56:21 51°13.662 2°55.963 5.7 19 16.5 100730 41
2010-08-05 02:56:26 51°13.659 2°55.964 5.1 81 16.5 100730 41
2010-08-05 02:56:31 51°13.656 2°55.965 4 23 16.5 100730 43
2010-08-05 02:56:36 51°13.656 2°55.967 4.6 -999 16.5 100730 43
2010-08-05 02:56:41 51°13.656 2°55.968 3.8 27 16.5 100730 42
2010-08-05 02:56:46 51°13.658 2°55.968 3.3 78 16.5 100730 42
2010-08-05 02:56:51 51°13.658 2°55.968 3.5 22 16.5 100730 42
2010-08-05 02:56:56 51°13.658 2°55.968 5.3 79 16.5 100730 42
2010-08-05 02:57:01 51°13.66 2°55.97 5 22 16.5 100730 42
2010-08-05 02:57:06 51°13.659 2°55.97 4.1 60 16.5 100730 42
2010-08-05 02:57:11 51°13.656 2°55.969 3.9 30 16.4 100730 43
2010-08-05 02:57:16 51°13.655 2°55.968 3.1 80 16.4 100730 43
2010-08-05 02:57:21 51°13.655 2°55.968 3.2 20 16.4 100730 43
2010-08-05 02:57:25 51°13.656 2°55.969 5.1 80 16.4 100730 43
2010-08-05 02:57:31 51°13.655 2°55.968 4.7 21 16.4 100730 42
2010-08-05 02:57:36 51°13.654 2°55.968 3.7 78 16.4 100730 42
2010-08-05 02:57:41 51°13.654 2°55.968 6.1 29 16.4 100730 43
2010-08-05 02:57:46 51°13.654 2°55.967 4.7 79 16.4 100730 43
2010-08-05 02:57:50 51°13.654 2°55.967 3.6 27 16.5 100730 44
2010-08-05 02:57:56 51°13.655 2°55.967 4.2 53 16.5 100730 44
2010-08-05 02:58:01 51°13.655 2°55.967 4.1 23 16.5 100730 43
2010-08-05 02:58:06 51°13.655 2°55.966 3.1 59 16.5 100730 43
2010-08-05 02:58:11 51°13.655 2°55.966 2.9 23 16.4 100730 43
2010-08-05 02:58:16 51°13.655 2°55.966 3.5 80 16.4 100730 43
2010-08-05 02:58:21 51°13.656 2°55.965 1.5 20 16.4 100730 43
2010-08-05 02:58:26 51°13.656 2°55.965 1.3 83 16.4 100730 43
2010-08-05 02:58:30 51°13.656 2°55.965 6 22 16.4 100730 42
2010-08-05 02:58:36 51°13.656 2°55.965 6.3 77 16.4 100730 42
2010-08-05 02:58:41 51°13.657 2°55.964 5.9 27 16.4 100730 42
2010-08-05 02:58:46 51°13.657 2°55.964 4.7 52 16.4 100730 42
2010-08-05 02:58:51 51°13.657 2°55.964 3 21 16.5 100730 44
2010-08-05 02:58:56 51°13.658 2°55.964 3.1 76 16.5 100730 44
2010-08-05 02:59:01 51°13.658 2°55.964 3.4 23 16.5 100720 42
2010-08-05 02:59:06 51°13.658 2°55.964 2.6 76 16.5 100720 42
2010-08-05 02:59:11 51°13.659 2°55.964 2.9 21 16.5 100720 44
2010-08-05 02:59:16 51°13.659 2°55.964 3.3 76 16.5 100720 44
2010-08-05 02:59:21 51°13.659 2°55.964 3.6 23 16.5 100730 43
2010-08-05 02:59:26 51°13.659 2°55.964 3.3 51 16.5 100730 43
2010-08-05 02:59:31 51°13.66 2°55.964 3.1 20 16.5 100730 43
2010-08-05 02:59:36 51°13.66 2°55.964 4.7 81 16.5 100730 43
2010-08-05 02:59:41 51°13.66 2°55.964 3.4 26 16.5 100730 44
2010-08-05 02:59:46 51°13.661 2°55.964 2.1 83 16.5 100730 44
2010-08-05 02:59:51 51°13.661 2°55.964 2.4 25 16.5 100730 43
2010-08-05 02:59:56 51°13.661 2°55.964 3.2 83 16.5 100730 43
2010-08-05 03:00:01 51°13.661 2°55.964 4 23 16.5 100730 42
2010-08-05 03:00:06 51°13.661 2°55.964 4.5 55 16.5 100730 42
2010-08-05 03:00:11 51°13.662 2°55.965 4.5 21 16.5 100730 42
2010-08-05 03:00:16 51°13.662 2°55.965 2.7 58 16.5 100730 42
2010-08-05 03:00:21 51°13.662 2°55.966 2.6 27 16.4 100730 42
2010-08-05 03:00:26 51°13.665 2°55.969 5.5 54 16.4 100730 42
2010-08-05 03:00:31 51°13.663 2°55.968 3.3 21 16.4 100730 42
2010-08-05 03:00:36 51°13.662 2°55.967 2.2 84 16.4 100730 42
2010-08-05 03:00:41 51°13.662 2°55.967 3.6 23 16.4 100730 43
2010-08-05 03:00:46 51°13.662 2°55.967 3.2 81 16.4 100730 43
2010-08-05 03:00:51 51°13.662 2°55.967 2.8 23 16.4 100730 42
2010-08-05 03:00:56 51°13.662 2°55.967 2.9 60 16.4 100730 42
2010-08-05 03:01:01 51°13.662 2°55.967 2.5 23 16.4 100730 42
2010-08-05 03:01:06 51°13.662 2°55.967 0.5 59 16.4 100730 42
2010-08-05 03:01:11 51°13.662 2°55.967 0.4 23 16.4 100730 43
2010-08-05 03:01:16 51°13.662 2°55.967 2.9 78 16.4 100730 43
2010-08-05 03:01:21 51°13.663 2°55.967 4 22 16.4 100730 42
2010-08-05 03:01:26 51°13.663 2°55.967 4.7 76 16.4 100730 42
2010-08-05 03:01:31 51°13.663 2°55.968 2.2 20 16.5 100730 43
2010-08-05 03:01:36 51°13.664 2°55.968 3.9 76 16.5 100730 43
2010-08-05 03:01:41 51°13.664 2°55.968 2.8 22 16.5 100730 41
2010-08-05 03:01:46 51°13.664 2°55.968 4.6 60 16.5 100730 41
2010-08-05 03:01:51 51°13.664 2°55.968 5.1 20 16.5 100730 42
2010-08-05 03:01:56 51°13.665 2°55.968 4.2 82 16.5 100730 42
2010-08-05 03:02:01 51°13.665 2°55.968 4.2 21 16.5 100730 42
2010-08-05 03:02:06 51°13.665 2°55.969 4.9 79 16.5 100730 42
2010-08-05 03:02:11 51°13.665 2°55.969 2.5 29 16.5 100730 44
2010-08-05 03:02:16 51°13.665 2°55.969 5 56 16.5 100730 44
2010-08-05 03:02:21 51°13.666 2°55.969 3.4 22 16.5 100730 43
2010-08-05 03:02:26 51°13.666 2°55.97 5.1 60 16.5 100730 43
2010-08-05 03:02:31 51°13.666 2°55.97 3.8 23 16.5 100730 44
2010-08-05 03:02:36 51°13.666 2°55.97 3.3 76 16.5 100730 44
2010-08-05 03:02:41 51°13.666 2°55.97 3.4 28 16.5 100730 44
2010-08-05 03:02:46 51°13.667 2°55.97 2.8 77 16.5 100730 44
2010-08-05 03:02:51 51°13.667 2°55.971 3.8 28 16.5 100730 42
2010-08-05 03:02:56 51°13.667 2°55.971 4.8 78 16.5 100730 42
2010-08-05 03:03:01 51°13.667 2°55.971 4.2 23 16.5 100730 42
2010-08-05 03:03:06 51°13.667 2°55.971 2.9 59 16.5 100730 42
2010-08-05 03:03:10 51°13.667 2°55.971 2.4 22 16.5 100730 43
2010-08-05 03:03:16 51°13.667 2°55.971 3.6 57 16.5 100730 43
2010-08-05 03:03:21 51°13.668 2°55.971 2.7 25 16.4 100730 43
2010-08-05 03:03:26 51°13.668 2°55.972 3.9 53 16.4 100730 43
2010-08-05 03:03:31 51°13.668 2°55.973 1.7 22 16.4 100730 43
2010-08-05 03:03:36 51°13.668 2°55.973 2.3 83 16.4 100730 43
2010-08-05 03:03:41 51°13.668 2°55.973 2.5 20 16.4 100730 42
2010-08-05 03:03:46 51°13.668 2°55.973 4.3 75 16.4 100730 42
2010-08-05 03:03:50 51°13.668 2°55.973 4 23 16.4 100730 43
2010-08-05 03:03:56 51°13.668 2°55.973 4.1 57 16.4 100730 43
2010-08-05 03:04:01 51°13.668 2°55.973 3.9 21 16.4 100730 43
2010-08-05 03:04:06 51°13.668 2°55.973 4 51 16.4 100730 43
2010-08-05 03:04:11 51°13.668 2°55.973 6.1 23 16.4 100730 42
2010-08-05 03:04:16 51°13.669 2°55.973 5.1 76 16.4 100730 42
2010-08-05 03:04:21 51°13.669 2°55.973 3.2 28 16.4 100730 40
2010-08-05 03:04:26 51°13.669 2°55.973 4 81 16.4 100730 40
2010-08-05 03:04:31 51°13.669 2°55.973 4.9 23 16.4 100730 43
2010-08-05 03:04:36 51°13.669 2°55.972 5 82 16.4 100730 43
2010-08-05 03:04:41 51°13.669 2°55.972 6.8 24 16.4 100730 42
2010-08-05 03:04:46 51°13.67 2°55.972 5.6 57 16.4 100730 42
2010-08-05 03:04:51 51°13.67 2°55.972 4.1 27 16.4 100730 42
2010-08-05 03:04:56 51°13.67 2°55.972 2.8 81 16.4 100730 42
2010-08-05 03:05:01 51°13.67 2°55.972 2.3 24 16.4 100730 42
2010-08-05 03:05:06 51°13.671 2°55.972 3.6 82 16.4 100730 42
2010-08-05 03:05:10 51°13.671 2°55.972 3.1 22 16.4 100730 42
2010-08-05 03:05:16 51°13.671 2°55.972 5.2 53 16.4 100730 42
2010-08-05 03:05:21 51°13.672 2°55.972 5.2 21 16.4 100730 42
2010-08-05 03:05:26 51°13.672 2°55.972 4.7 58 16.4 100730 42
2010-08-05 03:05:31 51°13.672 2°55.972 4.3 19 16.4 100730 42
2010-08-05 03:05:36 51°13.673 2°55.972 3.7 78 16.4 100730 42
2010-08-05 03:05:41 51°13.672 2°55.971 2.6 21 16.4 100730 44
2010-08-05 03:05:46 51°13.665 2°55.969 3.2 76 16.4 100730 44
2010-08-05 03:05:51 51°13.662 2°55.968 2.9 21 16.5 100730 42
2010-08-05 03:05:56 51°13.661 2°55.967 2.3 51 16.5 100730 42
2010-08-05 03:06:01 51°13.661 2°55.967 2.4 28 16.5 100730 43
2010-08-05 03:06:06 51°13.662 2°55.967 2.6 52 16.5 100730 43
2010-08-05 03:06:11 51°13.662 2°55.968 4.6 23 16.5 100730 43
2010-08-05 03:06:16 51°13.663 2°55.968 4 51 16.5 100730 43
2010-08-05 03:06:21 51°13.664 2°55.968 3.7 23 16.5 100730 44
2010-08-05 03:06:26 51°13.664 2°55.968 3.8 77 16.5 100730 44
2010-08-05 03:06:31 51°13.666 2°55.969 4.2 22 16.5 100730 44
2010-08-05 03:06:36 51°13.668 2°55.97 2.9 83 16.5 100730 44
2010-08-05 03:06:41 51°13.67 2°55.971 3 21 16.5 100730 43
2010-08-05 03:06:46 51°13.671 2°55.972 2.4 54 16.5 100730 43
2010-08-05 03:06:50 51°13.673 2°55.972 2.3 23 16.5 100730 44
2010-08-05 03:06:56 51°13.674 2°55.973 4.5 53 16.5 100730 44
2010-08-05 03:07:01 51°13.675 2°55.974 3.7 21 16.5 100730 43
2010-08-05 03:07:06 51°13.676 2°55.975 3.9 75 16.5 100730 43
2010-08-05 03:07:11 51°13.677 2°55.975 3.8 20 16.5 100730 43
2010-08-05 03:07:16 51°13.678 2°55.976 5.9 77 16.5 100730 43
2010-08-05 03:07:21 51°13.679 2°55.976 3.5 27 16.5 100730 44
2010-08-05 03:07:26 51°13.679 2°55.977 3.4 53 16.5 100730 44
2010-08-05 03:07:31 51°13.68 2°55.977 3.3 19 16.5 100730 43
2010-08-05 03:07:36 51°13.68 2°55.978 6.3 56 16.5 100730 43
2010-08-05 03:07:41 51°13.681 2°55.978 3.6 20 16.5 100730 43
2010-08-05 03:07:45 51°13.681 2°55.978 4.4 83 16.5 100730 43
2010-08-05 03:07:51 51°13.681 2°55.979 6 21 16.4 100730 43
2010-08-05 03:07:56 51°13.681 2°55.979 5.2 83 16.4 100730 43
2010-08-05 03:08:01 51°13.682 2°55.979 3.9 22 16.4 100730 43
2010-08-05 03:08:06 51°13.682 2°55.98 4.2 77 16.4 100730 43
2010-08-05 03:08:10 51°13.682 2°55.98 2.9 22 16.4 100730 43
2010-08-05 03:08:16 51°13.683 2°55.98 3.2 54 16.4 100730 43
2010-08-05 03:08:21 51°13.683 2°55.981 4.6 23 16.4 100730 43
2010-08-05 03:08:26 51°13.684 2°55.981 3.9 53 16.4 100730 43
2010-08-05 03:08:31 51°13.684 2°55.981 5 23 16.4 100730 44
2010-08-05 03:08:36 51°13.684 2°55.981 4.4 -999 16.4 100730 44
2010-08-05 03:08:41 51°13.685 2°55.982 3.9 24 16.4 100730 43
2010-08-05 03:08:46 51°13.686 2°55.982 3.9 76 16.4 100730 43
2010-08-05 03:08:50 51°13.686 2°55.982 3.4 28 16.4 100730 43
2010-08-05 03:08:52 51°13.686 2°55.982 4.3 53 16.4 100730 43
2010-08-05 03:08:52 51°13.686 2°55.982 5.2 75 16.4 100730 44
2010-08-05 03:08:52 51°13.686 2°55.982 4.1 56 16.4 100740 42
2010-08-05 03:08:52 51°13.686 2°55.982 3.5 29 16.3 100730 42
2010-08-05 03:08:52 51°13.686 2°55.982 3.1 21 16.3 100740 42
2010-08-05 03:08:52 51°13.686 2°55.982 5.6 81 16.4 100740 41
2010-08-05 03:08:52 51°13.686 2°55.982 2.2 76 16.3 100740 43
2010-08-05 03:08:52 51°13.686 2°55.982 3.3 22 16.4 100740 42
2010-08-05 03:08:52 51°13.686 2°55.982 4 26 16.3 100740 43
2010-08-05 03:08:52 51°13.686 2°55.982 5.5 77 16.3 100730 42
2010-08-05 03:08:52 51°13.686 2°55.982 4 21 16.4 100730 44
2010-08-05 03:08:52 51°13.686 2°55.982 3.2 26 16.4 100740 41
2010-08-05 03:09:56 51°13.686 2°55.982 4 56 16.3 100740 42
2010-08-05 03:10:01 51°13.686 2°55.982 4.4 21 16.3 100740 43
2010-08-05 03:10:05 51°13.686 2°55.982 5 76 16.3 100740 43
2010-08-05 03:10:10 51°13.686 2°55.982 3.4 26 16.3 100730 42
2010-08-05 03:10:15 51°13.686 2°55.982 4.4 76 16.3 100730 42
2010-08-05 03:10:20 51°13.686 2°55.982 4 29 16.3 100740 42
2010-08-05 03:10:24 51°13.686 2°55.982 4.7 53 16.3 100740 42
2010-08-05 03:10:30 51°13.657 2°55.961 3.1 22 16.3 100740 42
2010-08-05 03:10:36 51°13.66 2°55.963 4.1 76 16.3 100740 42
2010-08-05 03:10:41 51°13.662 2°55.964 4.6 28 16.3 100730 42
2010-08-05 03:10:46 51°13.662 2°55.964 2.8 51 16.3 100730 42
2010-08-05 03:10:50 51°13.662 2°55.964 2.7 23 16.3 100740 42
2010-08-05 03:10:56 51°13.662 2°55.964 2.9 77 16.3 100740 42
2010-08-05 03:11:01 51°13.663 2°55.963 3.7 20 16.3 100740 42
2010-08-05 03:11:06 51°13.663 2°55.963 2.5 84 16.3 100740 42
2010-08-05 03:11:11 51°13.662 2°55.963 4.7 21 16.3 100740 42
2010-08-05 03:11:16 51°13.662 2°55.963 3.6 57 16.3 100740 42
2010-08-05 03:11:21 51°13.662 2°55.963 3.5 19 16.3 100730 42
2010-08-05 03:11:26 51°13.662 2°55.962 4.8 83 16.3 100730 42
2010-08-05 03:11:31 51°13.662 2°55.962 3.6 24 16.4 100730 43
2010-08-05 03:11:36 51°13.662 2°55.962 4 78 16.4 100730 43
2010-08-05 03:11:41 51°13.662 2°55.962 3.1 30 16.4 100730 44
2010-08-05 03:11:44 51°13.662 2°55.962 4 74 16.4 100730 44
2010-08-05 03:11:51 51°13.662 2°55.961 2.8 23 16.4 100730 42
2010-08-05 03:11:56 51°13.661 2°55.961 2.9 59 16.4 100730 42
2010-08-05 03:12:01 51°13.661 2°55.961 3.4 21 16.4 100740 44
2010-08-05 03:12:06 51°13.661 2°55.961 3.6 77 16.4 100740 44
2010-08-05 03:12:11 51°13.66 2°55.961 4.8 20 16.3 100730 43
2010-08-05 03:12:31 51°13.66 2°55.961 3.2 21 16.3 100740 43
2010-08-05 03:12:36 51°13.66 2°55.961 2.9 78 16.3 100740 43
2010-08-05 03:13:01 51°13.66 2°55.96 3.8 25 16.3 100730 42
2010-08-05 03:13:22 51°13.66 2°55.96 3.8 22 16.3 100730 43
2010-08-05 03:13:52 51°13.66 2°55.96 2 20 16.3 100730 43
2010-08-05 03:14:06 51°13.661 2°55.96 2.2 60 16.3 100730 42
2010-08-05 03:14:10 51°13.661 2°55.96 2 21 16.3 100730 44
2010-08-05 03:14:16 51°13.661 2°55.96 4 83 16.3 100730 44
2010-08-05 03:14:21 51°13.661 2°55.96 4.1 23 16.3 100730 43
2010-08-05 03:14:26 51°13.661 2°55.96 4 53 16.3 100730 43
2010-08-05 03:14:30 51°13.661 2°55.96 4.1 25 16.3 100730 43
2010-08-05 03:14:36 51°13.661 2°55.96 3.5 76 16.3 100730 43
2010-08-05 03:14:41 51°13.661 2°55.96 2.2 20 16.3 100730 44
2010-08-05 03:14:46 51°13.661 2°55.96 2.3 83 16.3 100730 44
2010-08-05 03:14:50 51°13.661 2°55.96 4.6 21 16.3 100730 43
2010-08-05 03:14:56 51°13.661 2°55.96 2.4 75 16.3 100730 43
2010-08-05 03:15:00 51°13.661 2°55.96 1.9 28 16.3 100730 43
2010-08-05 03:15:06 51°13.661 2°55.96 2.4 83 16.3 100730 43
2010-08-05 03:15:11 51°13.661 2°55.96 2.9 27 16.3 100730 44
2010-08-05 03:15:16 51°13.661 2°55.96 2.9 53 16.3 100730 44
2010-08-05 03:15:21 51°13.661 2°55.96 2.5 29 16.3 100730 43
2010-08-05 03:15:26 51°13.66 2°55.959 3.7 76 16.3 100730 43
2010-08-05 03:15:31 51°13.66 2°55.959 4.2 20 16.4 100730 43
2010-08-05 03:15:36 51°13.66 2°55.959 3.1 77 16.4 100730 43
2010-08-05 03:15:41 51°13.66 2°55.959 3 26 16.4 100730 43
2010-08-05 03:15:46 51°13.66 2°55.959 4.3 77 16.4 100730 43
2010-08-05 03:15:51 51°13.66 2°55.959 4.7 24 16.4 100730 44
2010-08-05 03:15:55 51°13.66 2°55.959 3.2 80 16.4 100730 44
2010-08-05 03:16:01 51°13.66 2°55.96 2.2 29 16.4 100730 44
2010-08-05 03:16:06 51°13.66 2°55.96 5.2 77 16.4 100730 44
2010-08-05 03:16:11 51°13.66 2°55.96 4 21 16.3 100730 43
2010-08-05 03:16:16 51°13.661 2°55.96 3.1 77 16.3 100730 43
2010-08-05 03:16:21 51°13.661 2°55.96 5 19 16.3 100730 43
2010-08-05 03:16:26 51°13.661 2°55.96 5 76 16.3 100730 43
2010-08-05 03:16:30 51°13.661 2°55.96 5.4 23 16.3 100730 44
2010-08-05 03:16:36 51°13.661 2°55.96 4.5 81 16.3 100730 44
2010-08-05 03:16:41 51°13.661 2°55.96 2.9 268 16.3 100730 43
2010-08-05 03:16:46 51°13.661 2°55.96 2.9 53 16.3 100730 43
2010-08-05 03:16:50 51°13.661 2°55.96 3 23 16.3 100730 44
2010-08-05 03:16:56 51°13.661 2°55.96 2.3 76 16.3 100730 44
2010-08-05 03:17:01 51°13.661 2°55.96 3.2 22 16.3 100730 44
2010-08-05 03:17:06 51°13.661 2°55.96 3.3 51 16.3 100730 44
2010-08-05 03:17:10 51°13.661 2°55.96 3 23 16.3 100730 43
2010-08-05 03:17:16 51°13.661 2°55.96 2.1 76 16.3 100730 43
2010-08-05 03:17:21 51°13.661 2°55.96 1.9 28 16.3 100730 43
2010-08-05 03:17:26 51°13.661 2°55.96 2.7 75 16.3 100730 43
2010-08-05 03:17:31 51°13.661 2°55.96 4.7 25 16.3 100730 44
2010-08-05 03:17:36 51°13.661 2°55.96 3.2 -999 16.3 100730 44
2010-08-05 03:17:41 51°13.661 2°55.96 3.3 23 16.3 100730 43
2010-08-05 03:17:46 51°13.661 2°55.96 3.1 76 16.3 100730 43
2010-08-05 03:17:51 51°13.661 2°55.96 2.9 29 16.3 100740 43
2010-08-05 03:17:56 51°13.661 2°55.96 3.4 81 16.3 100740 43
2010-08-05 03:18:01 51°13.661 2°55.96 2.1 23 16.3 100730 44
2010-08-05 03:18:06 51°13.661 2°55.96 3.5 79 16.3 100730 44
2010-08-05 03:18:11 51°13.661 2°55.96 4 24 16.3 100730 43
2010-08-05 03:18:16 51°13.661 2°55.96 2.9 59 16.3 100730 43
2010-08-05 03:18:21 51°13.661 2°55.96 3.3 24 16.3 100730 43
2010-08-05 03:18:26 51°13.661 2°55.96 4.8 82 16.3 100730 43
2010-08-05 03:18:31 51°13.661 2°55.96 3.2 22 16.3 100740 44
2010-08-05 03:18:36 51°13.661 2°55.96 2.2 76 16.3 100740 44
2010-08-05 03:18:41 51°13.662 2°55.96 4.1 22 16.3 100730 44
2010-08-05 03:18:46 51°13.662 2°55.96 2.5 51 16.3 100730 44
2010-08-05 03:18:50 51°13.662 2°55.96 2.5 28 16.2 100740 44
2010-08-05 03:18:55 51°13.662 2°55.96 3.1 51 16.2 100740 44
2010-08-05 03:19:01 51°13.662 2°55.961 3.3 21 16.3 100740 44
2010-08-05 03:19:05 51°13.662 2°55.961 2.5 81 16.3 100740 44
2010-08-05 03:19:10 51°13.662 2°55.961 2.2 26 16.3 100730 44
2010-08-05 03:19:15 51°13.662 2°55.961 2.6 53 16.3 100730 44
2010-08-05 03:19:20 51°13.662 2°55.961 3.2 23 16.3 100730 44
2010-08-05 03:19:25 51°13.662 2°55.961 3.8 76 16.3 100730 44
2010-08-05 03:19:30 51°13.662 2°55.961 3.2 27 16.2 100730 43
2010-08-05 03:19:35 51°13.662 2°55.961 3.2 51 16.2 100730 43
2010-08-05 03:19:40 51°13.662 2°55.961 2.2 21 16.2 100730 43
2010-08-05 03:19:45 51°13.662 2°55.961 1.7 78 16.2 100730 43
2010-08-05 03:19:50 51°13.662 2°55.961 0.7 23 16.3 100730 44
2010-08-05 03:19:55 51°13.662 2°55.961 5.3 82 16.3 100730 44
2010-08-05 03:20:00 51°13.662 2°55.961 4.6 23 16.3 100740 43
2010-08-05 03:20:05 51°13.662 2°55.961 4.7 57 16.3 100740 43
2010-08-05 03:20:10 51°13.663 2°55.961 3.4 22 16.3 100740 43
2010-08-05 03:20:15 51°13.663 2°55.961 4.4 81 16.3 100740 43
2010-08-05 03:20:20 51°13.663 2°55.961 3.5 23 16.2 100740 42
2010-08-05 03:20:25 51°13.663 2°55.961 4 53 16.2 100740 42
2010-08-05 03:20:30 51°13.663 2°55.961 4.2 23 16.3 100730 43
2010-08-05 03:20:35 51°13.663 2°55.961 3.8 84 16.3 100730 43
2010-08-05 03:20:40 51°13.663 2°55.961 4.8 29 16.3 100730 44
2010-08-05 03:20:45 51°13.663 2°55.961 4.6 59 16.3 100730 44
2010-08-05 03:20:50 51°13.663 2°55.961 4.4 28 16.3 100730 44
2010-08-05 03:20:55 51°13.663 2°55.961 4.9 83 16.3 100730 44
2010-08-05 03:21:00 51°13.663 2°55.961 3.4 29 16.2 100730 44
2010-08-05 03:21:05 51°13.663 2°55.961 4.4 82 16.2 100730 44
2010-08-05 03:21:10 51°13.663 2°55.961 2.4 23 16.3 100740 43
2010-08-05 03:21:15 51°13.663 2°55.961 2.6 57 16.3 100740 43
2010-08-05 03:21:20 51°13.662 2°55.961 2.6 20 16.3 100740 43
2010-08-05 03:21:25 51°13.662 2°55.961 3.5 82 16.3 100740 43
2010-08-05 03:21:30 51°13.662 2°55.961 2.9 21 16.3 100730 45
2010-08-05 03:21:35 51°13.662 2°55.961 3.9 76 16.3 100730 45
2010-08-05 03:21:40 51°13.662 2°55.961 2.1 24 16.3 100740 43
2010-08-05 03:21:45 51°13.662 2°55.961 2.5 78 16.3 100740 43
2010-08-05 03:21:50 51°13.662 2°55.961 2.3 22 16.3 100740 45
2010-08-05 03:21:55 51°13.662 2°55.961 2.9 60 16.3 100740 45
2010-08-05 03:22:00 51°13.662 2°55.961 2.1 26 16.3 100740 45
2010-08-05 03:22:05 51°13.662 2°55.961 3.8 75 16.3 100740 45
2010-08-05 03:22:10 51°13.662 2°55.961 3.3 26 16.3 100740 45
2010-08-05 03:22:15 51°13.662 2°55.961 3.3 54 16.3 100740 45
2010-08-05 03:22:20 51°13.661 2°55.961 3.3 23 16.3 100730 43
2010-08-05 03:22:25 51°13.662 2°55.961 2.9 78 16.3 100730 43
2010-08-05 03:22:30 51°13.662 2°55.961 2.3 22 16.3 100730 43
2010-08-05 03:22:35 51°13.662 2°55.961 4.5 -999 16.3 100730 43
2010-08-05 03:22:40 51°13.661 2°55.961 3.6 25 16.3 100730 43
2010-08-05 03:22:45 51°13.662 2°55.961 4 57 16.3 100730 43
2010-08-05 03:22:50 51°13.662 2°55.961 4.8 21 16.3 100740 44
2010-08-05 03:22:55 51°13.662 2°55.961 3.4 80 16.3 100740 44
2010-08-05 03:23:00 51°13.662 2°55.962 3.9 21 16.3 100740 42
2010-08-05 03:23:05 51°13.662 2°55.962 4.4 57 16.3 100740 42
2010-08-05 03:23:10 51°13.662 2°55.962 1.1 28 16.3 100740 43
2010-08-05 03:23:15 51°13.662 2°55.962 2.3 78 16.3 100740 43
2010-08-05 03:23:20 51°13.662 2°55.962 2.2 20 16.3 100740 43
2010-08-05 03:23:25 51°13.662 2°55.962 4.5 51 16.3 100740 43
2010-08-05 03:23:30 51°13.662 2°55.962 3.5 29 16.3 100730 44
2010-08-05 03:23:35 51°13.662 2°55.962 4.2 75 16.3 100730 44
2010-08-05 03:23:40 51°13.662 2°55.962 2.9 29 16.3 100740 43
2010-08-05 03:23:45 51°13.662 2°55.962 3 77 16.3 100740 43
2010-08-05 03:23:50 51°13.662 2°55.962 3.7 24 16.3 100730 43
2010-08-05 03:23:55 51°13.662 2°55.962 1.7 51 16.3 100730 43
2010-08-05 03:24:00 51°13.662 2°55.962 2.9 20 16.3 100730 45
2010-08-05 03:24:05 51°13.662 2°55.962 4.4 76 16.3 100730 45
2010-08-05 03:24:10 51°13.662 2°55.962 2.9 29 16.3 100740 43
2010-08-05 03:24:15 51°13.662 2°55.962 3.6 52 16.3 100740 43
2010-08-05 03:24:20 51°13.662 2°55.962 3.4 28 16.3 100730 43
2010-08-05 03:24:25 51°13.662 2°55.962 2 78 16.3 100730 43
2010-08-05 03:24:30 51°13.662 2°55.962 3.6 22 16.3 100730 45
2010-08-05 03:24:35 51°13.662 2°55.962 3.4 81 16.3 100730 45
2010-08-05 03:24:40 51°13.662 2°55.962 2.1 23 16.3 100740 45
2010-08-05 03:24:45 51°13.662 2°55.962 4.7 84 16.3 100740 45
2010-08-05 03:24:50 51°13.662 2°55.962 2.6 21 16.3 100740 45
2010-08-05 03:24:55 51°13.662 2°55.962 2.7 83 16.3 100740 45
2010-08-05 03:25:00 51°13.662 2°55.962 2.9 23 16.3 100740 43
2010-08-05 03:25:05 51°13.662 2°55.962 2.9 77 16.3 100740 43
2010-08-05 03:25:10 51°13.662 2°55.962 2.7 24 16.3 100730 44
2010-08-05 03:25:15 51°13.662 2°55.962 4.9 76 16.3 100730 44
2010-08-05 03:25:20 51°13.662 2°55.962 3.8 20 16.3 100730 45
2010-08-05 03:25:25 51°13.662 2°55.962 3.6 57 16.3 100730 45
2010-08-05 03:25:30 51°13.662 2°55.961 4.2 25 16.3 100730 45
2010-08-05 03:25:35 51°13.662 2°55.961 3.6 -999 16.3 100730 45
2010-08-05 03:25:40 51°13.662 2°55.961 3.4 21 16.3 100730 42
2010-08-05 03:25:45 51°13.662 2°55.961 2.4 51 16.3 100730 42
2010-08-05 03:25:50 51°13.662 2°55.961 4.3 21 16.3 100730 44
2010-08-05 03:25:55 51°13.662 2°55.961 4.6 76 16.3 100730 44
2010-08-05 03:26:00 51°13.662 2°55.961 2.3 24 16.3 100740 45
2010-08-05 03:26:05 51°13.662 2°55.961 3.6 56 16.3 100740 45
2010-08-05 03:26:10 51°13.662 2°55.961 4.5 26 16.3 100740 43
2010-08-05 03:26:15 51°13.662 2°55.961 2.1 79 16.3 100740 43
2010-08-05 03:26:20 51°13.662 2°55.961 3 26 16.3 100730 43
2010-08-05 03:26:25 51°13.662 2°55.961 4.3 83 16.3 100730 43
2010-08-05 03:26:30 51°13.662 2°55.961 3.1 27 16.3 100740 44
2010-08-05 03:26:35 51°13.662 2°55.961 5.1 54 16.3 100740 44
2010-08-05 03:26:40 51°13.662 2°55.961 4.1 20 16.3 100740 45
2010-08-05 03:26:45 51°13.662 2°55.961 4.9 81 16.3 100740 45
2010-08-05 03:26:50 51°13.662 2°55.961 3.6 26 16.2 100740 45
2010-08-05 03:26:55 51°13.662 2°55.961 2.4 54 16.2 100740 45
2010-08-05 03:27:00 51°13.662 2°55.961 4.3 24 16.2 100740 45
2010-08-05 03:27:05 51°13.662 2°55.961 3.6 80 16.2 100740 45
2010-08-05 03:27:10 51°13.662 2°55.961 3.3 24 16.2 100740 43
2010-08-05 03:27:15 51°13.662 2°55.961 1.9 56 16.2 100740 43
2010-08-05 03:27:20 51°13.662 2°55.961 1.7 21 16.2 100740 43
2010-08-05 03:27:25 51°13.662 2°55.961 2.8 77 16.2 100740 43
2010-08-05 03:27:30 51°13.662 2°55.961 1.6 24 16.2 100740 45
2010-08-05 03:27:35 51°13.662 2°55.961 3 -999 16.2 100740 45
2010-08-05 03:27:40 51°13.662 2°55.961 2.1 29 16.2 100740 44
2010-08-05 03:27:45 51°13.662 2°55.961 2.7 74 16.2 100740 44
2010-08-05 03:27:50 51°13.662 2°55.961 2.2 23 16.2 100740 45
2010-08-05 03:27:55 51°13.662 2°55.961 2.2 82 16.2 100740 45
2010-08-05 03:28:00 51°13.662 2°55.961 2.8 22 16.2 100740 45
2010-08-05 03:28:05 51°13.662 2°55.961 2.1 52 16.2 100740 45
2010-08-05 03:28:10 51°13.662 2°55.961 3.8 29 16.2 100740 43
2010-08-05 03:28:15 51°13.662 2°55.961 4 83 16.2 100740 43
2010-08-05 03:28:20 51°13.662 2°55.961 1.4 23 16.2 100740 42
2010-08-05 03:28:25 51°13.662 2°55.961 1.4 52 16.2 100740 42
2010-08-05 03:28:30 51°13.662 2°55.961 1 29 16.2 100740 43
2010-08-05 03:28:35 51°13.662 2°55.961 2.7 79 16.2 100740 43
2010-08-05 03:28:40 51°13.662 2°55.961 2.7 23 16.2 100740 44
2010-08-05 03:28:45 51°13.662 2°55.961 4.4 55 16.2 100740 44
2010-08-05 03:28:50 51°13.662 2°55.961 4.4 22 16.3 100730 44
2010-08-05 03:28:55 51°13.662 2°55.961 3.5 76 16.3 100730 44
2010-08-05 03:29:00 51°13.662 2°55.961 2.4 26 16.3 100740 45
2010-08-05 03:29:05 51°13.662 2°55.961 3.4 53 16.3 100740 45
2010-08-05 03:29:10 51°13.662 2°55.961 3.9 23 16.3 100740 45
2010-08-05 03:29:15 51°13.662 2°55.961 2.3 75 16.3 100740 45
2010-08-05 03:29:20 51°13.662 2°55.961 3.7 27 16.2 100740 45
2010-08-05 03:29:25 51°13.662 2°55.961 4 76 16.2 100740 45
2010-08-05 03:29:30 51°13.662 2°55.961 3.5 21 16.2 100740 43
2010-08-05 03:29:35 51°13.662 2°55.961 3.8 80 16.2 100740 43
2010-08-05 03:29:40 51°13.662 2°55.961 2.6 24 16.2 100740 43
2010-08-05 03:29:45 51°13.662 2°55.961 2.7 82 16.2 100740 43
2010-08-05 03:29:50 51°13.662 2°55.961 2.7 29 16.2 100740 44
2010-08-05 03:29:55 51°13.662 2°55.96 4.4 53 16.2 100740 44
2010-08-05 03:30:00 51°13.662 2°55.96 3.4 25 16.3 100740 45
2010-08-05 03:30:05 51°13.662 2°55.96 1.6 74 16.3 100740 45
2010-08-05 03:30:10 51°13.662 2°55.96 2.2 21 16.3 100740 44
2010-08-05 03:30:15 51°13.662 2°55.96 4.2 57 16.3 100740 44
2010-08-05 03:30:20 51°13.662 2°55.96 5.8 25 16.3 100740 45
2010-08-05 03:30:25 51°13.662 2°55.96 5.1 83 16.3 100740 45
2010-08-05 03:30:30 51°13.662 2°55.96 6.7 26 16.3 100740 45
2010-08-05 03:30:35 51°13.662 2°55.96 7.3 78 16.3 100740 45
2010-08-05 03:30:40 51°13.662 2°55.96 4.7 30 16.3 100740 44
2010-08-05 03:30:45 51°13.662 2°55.96 4 82 16.3 100740 44
2010-08-05 03:30:50 51°13.662 2°55.96 3.1 23 16.3 100740 45
2010-08-05 03:30:55 51°13.662 2°55.961 5.4 76 16.3 100740 45
2010-08-05 03:31:00 51°13.662 2°55.961 5.7 22 16.3 100740 42
2010-08-05 03:31:05 51°13.662 2°55.961 4.6 54 16.3 100740 42
2010-08-05 03:31:10 51°13.662 2°55.961 3.3 26 16.3 100740 44
2010-08-05 03:31:15 51°13.662 2°55.961 3.7 81 16.3 100740 44
2010-08-05 03:31:20 51°13.662 2°55.961 4.8 20 16.2 100740 45
2010-08-05 03:31:25 51°13.662 2°55.961 2.7 57 16.2 100740 45
2010-08-05 03:31:30 51°13.662 2°55.961 3.4 23 16.2 100740 43
2010-08-05 03:31:35 51°13.662 2°55.961 3.3 -999 16.2 100740 43
2010-08-05 03:31:40 51°13.662 2°55.961 4.4 20 16.2 100740 43
2010-08-05 03:31:45 51°13.662 2°55.96 2.5 57 16.2 100740 43
2010-08-05 03:31:50 51°13.662 2°55.961 2.5 29 16.2 100740 43
2010-08-05 03:31:55 51°13.662 2°55.96 3.6 76 16.2 100740 43
2010-08-05 03:32:00 51°13.662 2°55.96 4.7 30 16.2 100740 43
2010-08-05 03:32:05 51°13.662 2°55.96 3.6 52 16.2 100740 43
2010-08-05 03:32:10 51°13.662 2°55.96 6.2 28 16.2 100740 43
2010-08-05 03:32:15 51°13.662 2°55.96 5.1 77 16.2 100740 43
2010-08-05 03:32:20 51°13.662 2°55.96 3.2 28 16.2 100740 44
2010-08-05 03:32:25 51°13.662 2°55.96 4.3 80 16.2 100740 44
2010-08-05 03:32:30 51°13.662 2°55.96 3.2 23 16.2 100750 43
2010-08-05 03:32:35 51°13.662 2°55.96 3.7 53 16.2 100750 43
2010-08-05 03:32:40 51°13.662 2°55.96 4.2 20 16.2 100740 43
2010-08-05 03:32:45 51°13.661 2°55.96 2.3 80 16.2 100740 43
2010-08-05 03:32:50 51°13.661 2°55.96 3.6 24 16.2 100750 43
2010-08-05 03:32:55 51°13.661 2°55.96 2.5 56 16.2 100750 43
2010-08-05 03:33:00 51°13.661 2°55.96 3.5 20 16.2 100740 43
2010-08-05 03:33:05 51°13.661 2°55.96 3.6 83 16.2 100740 43
2010-08-05 03:33:10 51°13.661 2°55.96 4.7 21 16.2 100740 43
2010-08-05 03:33:15 51°13.661 2°55.96 3.3 75 16.2 100740 43
2010-08-05 03:33:20 51°13.661 2°55.96 3.2 21 16.2 100740 43
2010-08-05 03:33:25 51°13.661 2°55.96 3.4 60 16.2 100740 43
2010-08-05 03:33:30 51°13.661 2°55.96 3.4 22 16.2 100740 44
2010-08-05 03:33:35 51°13.661 2°55.96 2.4 -999 16.2 100740 44
2010-08-05 03:33:40 51°13.661 2°55.96 1.9 21 16.2 100740 43
2010-08-05 03:33:45 51°13.661 2°55.96 2.1 52 16.2 100740 43
2010-08-05 03:33:50 51°13.661 2°55.96 3.2 26 16.2 100740 43
2010-08-05 03:33:55 51°13.661 2°55.96 4.5 52 16.2 100740 43
2010-08-05 03:34:00 51°13.661 2°55.96 4.1 25 16.2 100740 43
2010-08-05 03:34:05 51°13.661 2°55.96 3.3 74 16.2 100740 43
2010-08-05 03:34:10 51°13.661 2°55.96 4.5 21 16.2 100750 43
2010-08-05 03:34:15 51°13.661 2°55.96 4.1 55 16.2 100750 43
2010-08-05 03:34:20 51°13.661 2°55.96 3.8 27 16.2 100750 44
2010-08-05 03:34:25 51°13.661 2°55.96 2.6 79 16.2 100750 44
2010-08-05 03:34:30 51°13.661 2°55.96 3.5 27 16.2 100750 44
2010-08-05 03:34:35 51°13.661 2°55.96 3.6 50 16.2 100750 44
2010-08-05 03:34:40 51°13.661 2°55.96 3.7 28 16.2 100750 44
2010-08-05 03:34:45 51°13.661 2°55.96 3.9 83 16.2 100750 44
2010-08-05 03:34:50 51°13.662 2°55.96 3.3 23 16.2 100740 44
2010-08-05 03:34:55 51°13.662 2°55.96 2.8 58 16.2 100740 44
2010-08-05 03:35:00 51°13.661 2°55.96 3 25 16.2 100750 43
2010-08-05 03:35:05 51°13.662 2°55.96 3.9 81 16.2 100750 43
2010-08-05 03:35:10 51°13.662 2°55.96 2.7 29 16.2 100750 44
2010-08-05 03:35:15 51°13.662 2°55.96 4.1 82 16.2 100750 44
2010-08-05 03:35:20 51°13.662 2°55.96 2.4 23 16.2 100740 44
2010-08-05 03:35:25 51°13.662 2°55.96 3.7 51 16.2 100740 44
2010-08-05 03:35:30 51°13.662 2°55.96 3.6 27 16.2 100750 43
2010-08-05 03:35:35 51°13.662 2°55.96 4 76 16.2 100750 43
2010-08-05 03:35:40 51°13.662 2°55.96 2.8 27 16.2 100740 43
2010-08-05 03:35:45 51°13.661 2°55.96 3 58 16.2 100740 43
2010-08-05 03:35:50 51°13.662 2°55.96 3.6 20 16.2 100750 43
2010-08-05 03:35:55 51°13.662 2°55.96 3.5 58 16.2 100750 43
2010-08-05 03:36:00 51°13.662 2°55.96 4.2 22 16.2 100740 43
2010-08-05 03:36:05 51°13.662 2°55.96 3.3 52 16.2 100740 43
2010-08-05 03:36:10 51°13.662 2°55.96 3.2 29 16.2 100750 44
2010-08-05 03:36:15 51°13.661 2°55.96 3.8 53 16.2 100750 44
2010-08-05 03:36:20 51°13.661 2°55.96 2.6 22 16.2 100740 41
2010-08-05 03:36:25 51°13.661 2°55.96 2.9 54 16.2 100740 41
2010-08-05 03:36:30 51°13.661 2°55.96 2.8 22 16.2 100750 44
2010-08-05 03:36:35 51°13.661 2°55.96 3.4 53 16.2 100750 44
2010-08-05 03:36:40 51°13.661 2°55.96 2.9 24 16.2 100740 43
2010-08-05 03:36:45 51°13.661 2°55.96 4.8 77 16.2 100740 43
2010-08-05 03:36:50 51°13.661 2°55.96 3.3 23 16.2 100750 43
2010-08-05 03:36:56 51°13.662 2°55.96 3.4 60 16.2 100750 43
2010-08-05 03:37:00 51°13.662 2°55.96 3.5 23 16.2 100740 43
2010-08-05 03:37:05 51°13.662 2°55.96 2.7 76 16.2 100740 43
2010-08-05 03:37:10 51°13.662 2°55.96 2.5 27 16.2 100740 43
2010-08-05 03:37:15 51°13.662 2°55.96 2.9 82 16.2 100740 43
2010-08-05 03:37:20 51°13.662 2°55.96 3.8 22 16.2 100750 43
2010-08-05 03:37:25 51°13.662 2°55.96 2.3 76 16.2 100750 43
2010-08-05 03:37:30 51°13.662 2°55.96 2 28 16.2 100750 43
2010-08-05 03:37:35 51°13.662 2°55.96 1.9 -999 16.2 100750 43
2010-08-05 03:37:40 51°13.662 2°55.96 3.9 24 16.2 100740 44
2010-08-05 03:37:45 51°13.662 2°55.96 2.6 55 16.2 100740 44
2010-08-05 03:37:51 51°13.662 2°55.96 2.8 27 16.2 100750 44
2010-08-05 03:37:55 51°13.662 2°55.96 3.8 82 16.2 100750 44
2010-08-05 03:38:00 51°13.662 2°55.96 2.9 22 16.2 100750 44
2010-08-05 03:38:05 51°13.662 2°55.96 4.4 56 16.2 100750 44
2010-08-05 03:38:11 51°13.662 2°55.96 2.5 25 16.2 100750 44
2010-08-05 03:38:15 51°13.662 2°55.96 3.9 82 16.2 100750 44
2010-08-05 03:38:20 51°13.662 2°55.96 3.6 28 16.2 100740 44
2010-08-05 03:38:25 51°13.662 2°55.96 2.9 52 16.2 100740 44
2010-08-05 03:38:30 51°13.662 2°55.96 4 29 16.2 100750 43
2010-08-05 03:38:35 51°13.662 2°55.96 3.5 77 16.2 100750 43
2010-08-05 03:38:40 51°13.662 2°55.961 4 26 16.2 100750 44
2010-08-05 03:38:45 51°13.662 2°55.961 4.8 53 16.2 100750 44
2010-08-05 03:38:50 51°13.662 2°55.961 2.9 24 16.2 100750 44
2010-08-05 03:38:55 51°13.662 2°55.96 5.2 60 16.2 100750 44
2010-08-05 03:39:00 51°13.662 2°55.96 4.4 23 16.2 100750 41
2010-08-05 03:39:05 51°13.662 2°55.96 2.1 53 16.2 100750 41
2010-08-05 03:39:10 51°13.662 2°55.96 2.9 23 16.2 100750 44
2010-08-05 03:39:15 51°13.662 2°55.96 4.3 60 16.2 100750 44
2010-08-05 03:39:20 51°13.662 2°55.96 2.8 27 16.2 100750 44
2010-08-05 03:39:25 51°13.662 2°55.96 3.8 75 16.2 100750 44
2010-08-05 03:39:30 51°13.662 2°55.96 2.9 20 16.2 100750 44
2010-08-05 03:39:35 51°13.662 2°55.96 2.5 78 16.2 100750 44
2010-08-05 03:39:40 51°13.662 2°55.96 2.2 27 16.2 100750 44
2010-08-05 03:39:46 51°13.662 2°55.96 3.1 50 16.2 100750 44
2010-08-05 03:39:50 51°13.662 2°55.96 2.7 23 16.2 100750 43
2010-08-05 03:39:56 51°13.662 2°55.96 1.6 52 16.2 100750 43
2010-08-05 03:40:00 51°13.662 2°55.96 3.1 21 16.2 100750 43
2010-08-05 03:40:05 51°13.662 2°55.961 3.2 75 16.2 100750 43
2010-08-05 03:40:10 51°13.662 2°55.961 2.9 27 16.2 100750 43
2010-08-05 03:40:15 51°13.662 2°55.961 1.7 84 16.2 100750 43
2010-08-05 03:40:20 51°13.662 2°55.961 2.6 24 16.2 100750 43
2010-08-05 03:40:25 51°13.662 2°55.961 2.2 80 16.2 100750 43
2010-08-05 03:40:30 51°13.662 2°55.961 3.1 21 16.2 100750 44
2010-08-05 03:40:35 51°13.662 2°55.961 3.4 81 16.2 100750 44
2010-08-05 03:40:40 51°13.662 2°55.961 2.8 28 16.2 100750 44
2010-08-05 03:40:45 51°13.662 2°55.961 2.2 58 16.2 100750 44
2010-08-05 03:40:51 51°13.662 2°55.961 2.6 26 16.2 100750 44
2010-08-05 03:40:55 51°13.662 2°55.961 2.9 83 16.2 100750 44
2010-08-05 03:41:00 51°13.662 2°55.961 2.2 22 16.2 100750 43
2010-08-05 03:41:05 51°13.662 2°55.961 2.8 58 16.2 100750 43
2010-08-05 03:41:10 51°13.662 2°55.961 2.4 23 16.3 100750 45
2010-08-05 03:41:15 51°13.662 2°55.961 2.5 75 16.3 100750 45
2010-08-05 03:41:20 51°13.663 2°55.961 2.2 23 16.2 100750 45
2010-08-05 03:41:25 51°13.662 2°55.961 3.3 54 16.2 100750 45
2010-08-05 03:41:30 51°13.662 2°55.961 3.6 29 16.3 100750 43
2010-08-05 03:41:35 51°13.662 2°55.961 4.4 82 16.3 100750 43
2010-08-05 03:41:40 51°13.662 2°55.961 3.8 23 16.3 100750 43
2010-08-05 03:41:45 51°13.662 2°55.961 3.9 59 16.3 100750 43
2010-08-05 03:41:50 51°13.662 2°55.961 1.8 23 16.3 100750 43
2010-08-05 03:41:55 51°13.662 2°55.961 4.1 52 16.3 100750 43
2010-08-05 03:42:00 51°13.662 2°55.961 2.9 24 16.3 100750 43
2010-08-05 03:42:06 51°13.662 2°55.961 2.2 57 16.3 100750 43
2010-08-05 03:42:10 51°13.662 2°55.961 1.4 27 16.3 100750 43
2010-08-05 03:42:15 51°13.662 2°55.961 1.4 52 16.3 100750 43
2010-08-05 03:42:20 51°13.662 2°55.961 2.3 23 16.3 100750 43
2010-08-05 03:42:25 51°13.662 2°55.961 2.1 82 16.3 100750 43
2010-08-05 03:42:30 51°13.662 2°55.961 3.6 27 16.3 100750 43
2010-08-05 03:42:35 51°13.662 2°55.961 2.9 80 16.3 100750 43
2010-08-05 03:42:40 51°13.662 2°55.961 3.1 21 16.3 100750 43
2010-08-05 03:42:45 51°13.662 2°55.961 2.9 80 16.3 100750 43
2010-08-05 03:42:50 51°13.662 2°55.961 5.9 21 16.3 100750 44
2010-08-05 03:42:55 51°13.662 2°55.961 4.2 74 16.3 100750 44
2010-08-05 03:43:00 51°13.662 2°55.961 6.8 22 16.3 100750 43
2010-08-05 03:43:05 51°13.662 2°55.961 3.1 79 16.3 100750 43
2010-08-05 03:43:11 51°13.662 2°55.961 5.3 22 16.2 100750 44
2010-08-05 03:43:15 51°13.662 2°55.961 4.9 76 16.2 100750 44
2010-08-05 03:43:20 51°13.662 2°55.961 4.7 25 16.2 100750 44
2010-08-05 03:43:25 51°13.662 2°55.961 3.9 51 16.2 100750 44
2010-08-05 03:43:31 51°13.663 2°55.961 3.9 26 16.2 100750 43
2010-08-05 03:43:35 51°13.663 2°55.961 4.3 -999 16.2 100750 43
2010-08-05 03:43:40 51°13.663 2°55.961 3.7 23 16.2 100750 45
2010-08-05 03:43:45 51°13.663 2°55.961 4.7 52 16.2 100750 45
2010-08-05 03:43:50 51°13.663 2°55.961 3.8 23 16.2 100750 44
2010-08-05 03:43:55 51°13.663 2°55.961 4.9 80 16.2 100750 44
2010-08-05 03:44:00 51°13.663 2°55.961 4 28 16.2 100750 43
2010-08-05 03:44:05 51°13.663 2°55.961 4.9 53 16.2 100750 43
2010-08-05 03:44:10 51°13.663 2°55.961 5 28 16.2 100750 43
2010-08-05 03:44:15 51°13.663 2°55.961 3.5 51 16.2 100750 43
2010-08-05 03:44:21 51°13.663 2°55.961 3.8 27 16.2 100750 42
2010-08-05 03:44:25 51°13.663 2°55.961 4.7 53 16.2 100750 42
2010-08-05 03:44:30 51°13.663 2°55.961 3.1 21 16.2 100750 44
2010-08-05 03:44:35 51°13.663 2°55.961 4.6 54 16.2 100750 44
2010-08-05 03:44:41 51°13.663 2°55.961 3.9 23 16.2 100750 43
2010-08-05 03:44:46 51°13.663 2°55.96 3.8 53 16.2 100750 43
2010-08-05 03:44:50 51°13.663 2°55.96 2.3 28 16.2 100750 43
2010-08-05 03:44:55 51°13.663 2°55.96 3.3 59 16.2 100750 43
2010-08-05 03:45:00 51°13.663 2°55.96 3.5 22 16.2 100750 43
2010-08-05 03:45:05 51°13.663 2°55.96 3.1 77 16.2 100750 43
2010-08-05 03:45:10 51°13.663 2°55.96 2.9 20 16.2 100750 44
2010-08-05 03:45:15 51°13.663 2°55.96 3.2 60 16.2 100750 44
2010-08-05 03:45:20 51°13.663 2°55.96 3.9 20 16.2 100750 43
2010-08-05 03:45:25 51°13.663 2°55.96 3.5 80 16.2 100750 43
2010-08-05 03:45:30 51°13.663 2°55.96 5.3 20 16.2 100750 43
2010-08-05 03:45:35 51°13.663 2°55.96 5.7 76 16.2 100750 43
2010-08-05 03:45:40 51°13.663 2°55.96 4.2 28 16.2 100750 43
2010-08-05 03:45:45 51°13.663 2°55.96 3.7 78 16.2 100750 43
2010-08-05 03:45:51 51°13.663 2°55.96 4.4 28 16.2 100750 43
2010-08-05 03:45:55 51°13.663 2°55.96 4.1 77 16.2 100750 43
2010-08-05 03:46:00 51°13.663 2°55.96 4.4 29 16.2 100750 43
2010-08-05 03:46:05 51°13.663 2°55.96 4.4 54 16.2 100750 43
2010-08-05 03:46:11 51°13.663 2°55.96 5.1 30 16.2 100750 44
2010-08-05 03:46:15 51°13.663 2°55.96 3.9 78 16.2 100750 44
2010-08-05 03:46:20 51°13.663 2°55.96 3.6 21 16.1 100750 43
2010-08-05 03:46:25 51°13.663 2°55.96 2.8 59 16.1 100750 43
2010-08-05 03:46:30 51°13.663 2°55.96 2.6 26 16.2 100750 44
2010-08-05 03:46:35 51°13.663 2°55.96 3.5 77 16.2 100750 44
2010-08-05 03:46:40 51°13.663 2°55.96 5.1 22 16.1 100750 43
2010-08-05 03:46:45 51°13.663 2°55.96 4.6 59 16.1 100750 43
2010-08-05 03:46:50 51°13.663 2°55.96 4.8 22 16.1 100750 43
2010-08-05 03:46:55 51°13.663 2°55.96 3 58 16.1 100750 43
2010-08-05 03:47:00 51°13.663 2°55.96 2.3 28 16.1 100750 42
2010-08-05 03:47:05 51°13.663 2°55.96 3 54 16.1 100750 42
2010-08-05 03:47:10 51°13.663 2°55.96 3.3 22 16.1 100750 43
2010-08-05 03:47:15 51°13.663 2°55.96 2.9 53 16.1 100750 43
2010-08-05 03:47:20 51°13.663 2°55.96 3.9 23 16.1 100750 44
2010-08-05 03:47:26 51°13.663 2°55.96 2.4 58 16.1 100750 44
2010-08-05 03:47:30 51°13.663 2°55.96 2.7 20 16.1 100750 44
2010-08-05 03:47:35 51°13.663 2°55.96 3.9 77 16.1 100750 44
2010-08-05 03:47:40 51°13.663 2°55.96 3.9 23 16.1 100750 43
2010-08-05 03:47:45 51°13.663 2°55.96 3.4 76 16.1 100750 43
2010-08-05 03:47:50 51°13.663 2°55.96 3.7 20 16.1 100750 43
2010-08-05 03:47:55 51°13.663 2°55.96 2.5 75 16.1 100750 43
2010-08-05 03:48:00 51°13.663 2°55.96 2.3 22 16.1 100750 43
2010-08-05 03:48:05 51°13.663 2°55.96 2.2 75 16.1 100750 43
2010-08-05 03:48:10 51°13.663 2°55.96 3 23 16.1 100750 43
2010-08-05 03:48:16 51°13.663 2°55.96 4.6 52 16.1 100750 43
2010-08-05 03:48:20 51°13.663 2°55.96 2.5 27 16.2 100750 45
2010-08-05 03:48:25 51°13.663 2°55.96 5.4 51 16.2 100750 45
2010-08-05 03:48:30 51°13.663 2°55.96 4.5 24 16.2 100750 43
2010-08-05 03:48:35 51°13.663 2°55.96 4.6 -999 16.2 100750 43
2010-08-05 03:48:40 51°13.663 2°55.96 4.6 22 16.2 100750 43
2010-08-05 03:48:45 51°13.663 2°55.96 5 54 16.2 100750 43
2010-08-05 03:48:50 51°13.663 2°55.96 3.5 23 16.1 100750 43
2010-08-05 03:48:55 51°13.663 2°55.96 5.4 78 16.1 100750 43
2010-08-05 03:49:00 51°13.663 2°55.96 2.4 21 16.2 100750 44
2010-08-05 03:49:05 51°13.663 2°55.96 3.2 60 16.2 100750 44
2010-08-05 03:49:10 51°13.663 2°55.96 3.3 28 16.1 100750 44
2010-08-05 03:49:15 51°13.663 2°55.96 3.3 76 16.1 100750 44
2010-08-05 03:49:20 51°13.663 2°55.96 5 26 16.1 100750 44
2010-08-05 03:49:25 51°13.663 2°55.96 3.9 78 16.1 100750 44
2010-08-05 03:49:30 51°13.663 2°55.96 3.7 20 16.1 100760 44
2010-08-05 03:49:35 51°13.662 2°55.96 5.1 78 16.1 100760 44
2010-08-05 03:49:41 51°13.662 2°55.96 5 27 16.1 100760 43
2010-08-05 03:49:46 51°13.662 2°55.96 4.2 81 16.1 100760 43
2010-08-05 03:49:50 51°13.662 2°55.96 4.1 30 16.1 100750 44
2010-08-05 03:49:55 51°13.662 2°55.96 3.2 77 16.1 100750 44
2010-08-05 03:50:00 51°13.662 2°55.96 4.2 23 16.1 100750 44
2010-08-05 03:50:05 51°13.662 2°55.96 4.3 76 16.1 100750 44
2010-08-05 03:50:10 51°13.662 2°55.96 4.1 21 16.1 100760 43
2010-08-05 03:50:15 51°13.662 2°55.96 4.3 78 16.1 100760 43
2010-08-05 03:50:20 51°13.662 2°55.96 3.5 20 16.1 100760 43
2010-08-05 03:50:25 51°13.662 2°55.96 3.8 81 16.1 100760 43
2010-08-05 03:50:30 51°13.662 2°55.96 4.3 28 16.1 100750 43
2010-08-05 03:50:35 51°13.662 2°55.96 1.9 -999 16.1 100750 43
2010-08-05 03:50:40 51°13.662 2°55.96 4 23 16.1 100750 43
2010-08-05 03:50:45 51°13.662 2°55.96 5.1 77 16.1 100750 43
2010-08-05 03:50:50 51°13.662 2°55.96 4.9 19 16.1 100760 43
2010-08-05 03:50:55 51°13.662 2°55.96 5.4 76 16.1 100760 43
2010-08-05 03:51:00 51°13.662 2°55.96 4.4 28 16.1 100750 43
2010-08-05 03:51:05 51°13.662 2°55.96 4 77 16.1 100750 43
2010-08-05 03:51:10 51°13.662 2°55.96 4.7 22 16.1 100760 43
2010-08-05 03:51:15 51°13.662 2°55.96 4.2 75 16.1 100760 43
2010-08-05 03:51:20 51°13.662 2°55.96 4 28 16.1 100750 43
2010-08-05 03:51:25 51°13.662 2°55.96 4 77 16.1 100750 43
2010-08-05 03:51:30 51°13.662 2°55.96 3.9 23 16.1 100750 44
2010-08-05 03:51:35 51°13.662 2°55.96 3.1 80 16.1 100750 44
2010-08-05 03:51:40 51°13.662 2°55.96 2.6 23 16.1 100760 44
2010-08-05 03:51:45 51°13.662 2°55.96 3 77 16.1 100760 44
2010-08-05 03:51:50 51°13.662 2°55.96 3.9 25 16.1 100760 44
2010-08-05 03:51:55 51°13.662 2°55.96 4.7 80 16.1 100760 44
2010-08-05 03:52:00 51°13.662 2°55.96 4.7 25 16.1 100750 43
2010-08-05 03:52:05 51°13.662 2°55.96 4.6 83 16.1 100750 43
2010-08-05 03:52:10 51°13.662 2°55.96 4.8 22 16.1 100750 44
2010-08-05 03:52:15 51°13.662 2°55.96 4.7 83 16.1 100750 44
2010-08-05 03:52:21 51°13.662 2°55.96 3.5 27 16.1 100750 44
2010-08-05 03:52:26 51°13.662 2°55.96 4.2 74 16.1 100750 44
2010-08-05 03:52:30 51°13.662 2°55.96 4.4 24 16.2 100760 45
2010-08-05 03:52:35 51°13.662 2°55.96 3.5 81 16.2 100760 45
2010-08-05 03:52:40 51°13.662 2°55.96 5.2 29 16.2 100750 44
2010-08-05 03:52:45 51°13.662 2°55.96 4.5 77 16.2 100750 44
2010-08-05 03:52:50 51°13.662 2°55.96 3 23 16.2 100760 43
2010-08-05 03:52:55 51°13.662 2°55.96 2.8 75 16.2 100760 43
2010-08-05 03:53:00 51°13.662 2°55.96 2.5 29 16.2 100750 44
2010-08-05 03:53:05 51°13.662 2°55.96 3.7 82 16.2 100750 44
2010-08-05 03:53:10 51°13.662 2°55.96 3.2 23 16.2 100750 45
2010-08-05 03:53:15 51°13.662 2°55.96 3.1 75 16.2 100750 45
2010-08-05 03:53:20 51°13.662 2°55.96 2.5 21 16.2 100760 44
2010-08-05 03:53:25 51°13.662 2°55.96 2.6 83 16.2 100760 44
2010-08-05 03:53:30 51°13.662 2°55.96 2.4 26 16.2 100750 44
2010-08-05 03:53:35 51°13.662 2°55.96 5.2 83 16.2 100750 44
2010-08-05 03:53:40 51°13.663 2°55.96 3.2 25 16.2 100760 44
2010-08-05 03:53:45 51°13.663 2°55.96 2.4 82 16.2 100760 44
2010-08-05 03:53:50 51°13.663 2°55.96 5.1 22 16.2 100760 45
2010-08-05 03:53:55 51°13.663 2°55.96 3.9 77 16.2 100760 45
2010-08-05 03:54:00 51°13.663 2°55.96 4 20 16.2 100760 45
2010-08-05 03:54:05 51°13.663 2°55.96 3.3 82 16.2 100760 45
2010-08-05 03:54:10 51°13.663 2°55.96 3.1 29 16.2 100760 45
2010-08-05 03:54:15 51°13.663 2°55.96 2.9 78 16.2 100760 45
2010-08-05 03:54:20 51°13.663 2°55.96 4.4 30 16.2 100760 45
2010-08-05 03:54:25 51°13.663 2°55.96 5.3 83 16.2 100760 45
2010-08-05 03:54:31 51°13.663 2°55.96 3.6 23 16.2 100760 44
2010-08-05 03:54:35 51°13.663 2°55.96 3.9 76 16.2 100760 44
2010-08-05 03:54:40 51°13.663 2°55.96 4.2 21 16.2 100760 43
2010-08-05 03:54:45 51°13.663 2°55.96 3.8 80 16.2 100760 43
2010-08-05 03:54:50 51°13.663 2°55.96 4.3 28 16.2 100760 43
2010-08-05 03:54:55 51°13.663 2°55.96 4.1 80 16.2 100760 43
2010-08-05 03:55:00 51°13.663 2°55.96 4.6 28 16.1 100760 44
2010-08-05 03:55:05 51°13.663 2°55.96 4.3 75 16.1 100760 44
2010-08-05 03:55:10 51°13.663 2°55.96 4.1 26 16.1 100760 43
2010-08-05 03:55:15 51°13.663 2°55.96 5.4 80 16.1 100760 43
2010-08-05 03:55:20 51°13.663 2°55.96 4.3 26 16.1 100760 43
2010-08-05 03:55:25 51°13.663 2°55.96 3.8 76 16.1 100760 43
2010-08-05 03:55:30 51°13.663 2°55.96 4.6 21 16.1 100760 43
2010-08-05 03:55:35 51°13.663 2°55.96 4.4 77 16.1 100760 43
2010-08-05 03:55:40 51°13.663 2°55.96 3.8 25 16.1 100760 43
2010-08-05 03:55:45 51°13.663 2°55.96 3.3 82 16.1 100760 43
2010-08-05 03:55:50 51°13.662 2°55.96 2.5 21 16.1 100760 44
2010-08-05 03:55:55 51°13.663 2°55.96 2.4 81 16.1 100760 44
2010-08-05 03:56:00 51°13.663 2°55.96 3.4 21 16.1 100760 43
2010-08-05 03:56:05 51°13.663 2°55.96 3.5 77 16.1 100760 43
2010-08-05 03:56:10 51°13.663 2°55.961 2.7 25 16.1 100760 43
2010-08-05 03:56:15 51°13.663 2°55.961 3.4 81 16.1 100760 43
2010-08-05 03:56:20 51°13.663 2°55.961 2.9 22 16.1 100760 44
2010-08-05 03:56:25 51°13.662 2°55.961 1.9 75 16.1 100760 44
2010-08-05 03:56:30 51°13.662 2°55.961 3.5 23 16.1 100760 44
2010-08-05 03:56:35 51°13.662 2°55.961 5.1 79 16.1 100760 44
2010-08-05 03:56:40 51°13.662 2°55.961 3.8 23 16.1 100760 43
2010-08-05 03:56:45 51°13.662 2°55.961 2 75 16.1 100760 43
2010-08-05 03:56:50 51°13.662 2°55.961 3.5 30 16.1 100760 43
2010-08-05 03:56:55 51°13.662 2°55.961 2.8 80 16.1 100760 43
2010-08-05 03:57:00 51°13.662 2°55.961 2.1 22 16.2 100760 43
2010-08-05 03:57:05 51°13.662 2°55.961 2 82 16.2 100760 43
2010-08-05 03:57:10 51°13.662 2°55.961 2.1 22 16.2 100760 44
2010-08-05 03:57:15 51°13.662 2°55.961 2.7 82 16.2 100760 44
2010-08-05 03:57:20 51°13.662 2°55.961 2 21 16.2 100760 43
2010-08-05 03:57:25 51°13.662 2°55.961 2.9 82 16.2 100760 43
2010-08-05 03:57:30 51°13.662 2°55.961 4.2 24 16.2 100750 44
2010-08-05 03:57:35 51°13.662 2°55.961 4.8 76 16.2 100750 44
2010-08-05 03:57:40 51°13.662 2°55.961 2.5 22 16.2 100760 43
2010-08-05 03:57:45 51°13.662 2°55.961 2.5 82 16.2 100760 43
2010-08-05 03:57:50 51°13.662 2°55.961 4.2 25 16.2 100760 44
2010-08-05 03:57:55 51°13.662 2°55.961 4.5 77 16.2 100760 44
2010-08-05 03:58:00 51°13.662 2°55.961 3.6 26 16.2 100750 45
2010-08-05 03:58:05 51°13.662 2°55.961 4.5 79 16.2 100750 45
2010-08-05 03:58:10 51°13.662 2°55.961 4.7 29 16.2 100760 42
2010-08-05 03:58:15 51°13.662 2°55.961 3.7 75 16.2 100760 42
2010-08-05 03:58:20 51°13.662 2°55.961 3.9 29 16.2 100760 44
2010-08-05 03:58:25 51°13.662 2°55.961 2.8 76 16.2 100760 44
2010-08-05 03:58:30 51°13.662 2°55.961 2.6 21 16.2 100760 45
2010-08-05 03:58:36 51°13.662 2°55.961 2.7 77 16.2 100760 45
2010-08-05 03:58:40 51°13.662 2°55.961 2.6 24 16.2 100760 44
2010-08-05 03:58:45 51°13.662 2°55.961 3.5 81 16.2 100760 44
2010-08-05 03:58:50 51°13.662 2°55.961 5.3 27 16.2 100750 44
2010-08-05 03:58:55 51°13.662 2°55.961 4.4 81 16.2 100750 44
2010-08-05 03:59:00 51°13.662 2°55.961 5.3 21 16.2 100750 44
2010-08-05 03:59:05 51°13.662 2°55.961 5.3 82 16.2 100750 44
2010-08-05 03:59:10 51°13.662 2°55.961 5.4 23 16.2 100760 45
2010-08-05 03:59:15 51°13.662 2°55.961 5.1 75 16.2 100760 45
2010-08-05 03:59:20 51°13.662 2°55.961 4.4 20 16.2 100760 43
2010-08-05 03:59:25 51°13.662 2°55.961 4.4 81 16.2 100760 43
2010-08-05 03:59:31 51°13.662 2°55.961 5.2 23 16.2 100760 43
2010-08-05 03:59:35 51°13.662 2°55.961 4.4 83 16.2 100760 43
2010-08-05 03:59:40 51°13.662 2°55.961 4.8 29 16.2 100760 44
2010-08-05 03:59:45 51°13.662 2°55.961 4.4 82 16.2 100760 44
2010-08-05 03:59:50 51°13.662 2°55.961 1.5 26 16.1 100760 43
2010-08-05 03:59:55 51°13.662 2°55.961 3.3 76 16.1 100760 43
2010-08-05 04:00:00 51°13.662 2°55.961 4.5 21 16.1 100750 44
2010-08-05 04:00:05 51°13.662 2°55.961 3 76 16.1 100750 44
2010-08-05 04:00:10 51°13.662 2°55.961 2.7 22 16.1 100750 43
2010-08-05 04:00:15 51°13.662 2°55.961 2.8 80 16.1 100750 43
2010-08-05 04:00:21 51°13.662 2°55.962 2.4 22 16.1 100760 43
2010-08-05 04:00:26 51°13.662 2°55.962 3 76 16.1 100760 43
2010-08-05 04:00:30 51°13.662 2°55.962 5.3 23 16.1 100760 44
2010-08-05 04:00:35 51°13.662 2°55.962 4.2 80 16.1 100760 44
2010-08-05 04:00:40 51°13.662 2°55.962 3.8 21 16.1 100760 43
2010-08-05 04:00:46 51°13.662 2°55.962 3.2 75 16.1 100760 43
2010-08-05 04:00:50 51°13.662 2°55.962 4.6 27 16.1 100750 41
2010-08-05 04:00:55 51°13.662 2°55.962 4.3 77 16.1 100750 41
2010-08-05 04:01:00 51°13.662 2°55.962 3.4 28 16.1 100760 43
2010-08-05 04:01:05 51°13.662 2°55.962 3.1 76 16.1 100760 43
2010-08-05 04:01:10 51°13.662 2°55.962 2.7 28 16.1 100760 44
2010-08-05 04:01:16 51°13.662 2°55.962 2.6 83 16.1 100760 44
2010-08-05 04:01:20 51°13.662 2°55.962 2.7 21 16.1 100760 43
2010-08-05 04:01:25 51°13.662 2°55.962 4 77 16.1 100760 43
2010-08-05 04:01:30 51°13.662 2°55.962 3.4 30 16.1 100760 44
2010-08-05 04:01:35 51°13.662 2°55.962 4 77 16.1 100760 44
2010-08-05 04:01:40 51°13.662 2°55.962 3.1 27 16.1 100760 43
2010-08-05 04:01:45 51°13.662 2°55.962 3.1 81 16.1 100760 43
2010-08-05 04:01:51 51°13.662 2°55.962 2.8 29 16.2 100760 44
2010-08-05 04:01:55 51°13.662 2°55.962 3.1 82 16.2 100760 44
2010-08-05 04:02:00 51°13.662 2°55.963 4.1 28 16.1 100760 43
2010-08-05 04:02:05 51°13.662 2°55.963 3.4 75 16.1 100760 43
2010-08-05 04:02:11 51°13.662 2°55.963 4.3 29 16.1 100760 43
2010-08-05 04:02:15 51°13.662 2°55.963 2.7 77 16.1 100760 43
2010-08-05 04:02:20 51°13.662 2°55.963 2.1 24 16.1 100760 44
2010-08-05 04:02:25 51°13.662 2°55.963 0.4 75 16.1 100760 44
2010-08-05 04:02:31 51°13.662 2°55.963 0.9 29 16.1 100760 43
2010-08-05 04:02:35 51°13.662 2°55.963 0.2 78 16.1 100760 43
2010-08-05 04:02:40 51°13.662 2°55.963 1.6 22 16.2 100760 45
2010-08-05 04:02:45 51°13.662 2°55.963 0.3 79 16.2 100760 45
2010-08-05 04:02:50 51°13.662 2°55.963 2.4 29 16.2 100760 44
2010-08-05 04:02:55 51°13.662 2°55.963 2.8 77 16.2 100760 44
2010-08-05 04:03:01 51°13.662 2°55.963 2.3 21 16.2 100760 43
2010-08-05 04:03:06 51°13.662 2°55.963 1.4 75 16.2 100760 43
2010-08-05 04:03:10 51°13.662 2°55.963 1.8 26 16.2 100760 44
2010-08-05 04:03:15 51°13.662 2°55.963 3.2 77 16.2 100760 44
2010-08-05 04:03:21 51°13.662 2°55.963 2.3 27 16.2 100760 43
2010-08-05 04:03:26 51°13.662 2°55.963 2.9 79 16.2 100760 43
2010-08-05 04:03:30 51°13.662 2°55.963 2.9 21 16.2 100760 42
2010-08-05 04:03:35 51°13.662 2°55.963 2.2 81 16.2 100760 42
2010-08-05 04:03:40 51°13.662 2°55.963 2.4 29 16.2 100760 44
2010-08-05 04:03:45 51°13.662 2°55.963 1.9 76 16.2 100760 44
2010-08-05 04:03:50 51°13.662 2°55.963 1.9 29 16.2 100760 44
2010-08-05 04:03:55 51°13.662 2°55.963 2.5 78 16.2 100760 44
2010-08-05 04:04:00 51°13.662 2°55.963 5.2 23 16.2 100760 43
2010-08-05 04:04:05 51°13.662 2°55.963 2.5 81 16.2 100760 43
2010-08-05 04:04:10 51°13.662 2°55.963 2.3 25 16.3 100760 43
2010-08-05 04:04:16 51°13.662 2°55.963 3 74 16.3 100760 43
2010-08-05 04:04:20 51°13.662 2°55.963 3.6 22 16.2 100760 45
2010-08-05 04:04:25 51°13.662 2°55.963 2.5 82 16.2 100760 45
2010-08-05 04:04:30 51°13.662 2°55.963 1.9 22 16.2 100760 44
2010-08-05 04:04:35 51°13.662 2°55.963 2.3 81 16.2 100760 44
2010-08-05 04:04:40 51°13.662 2°55.963 3 21 16.2 100760 44
2010-08-05 04:04:45 51°13.662 2°55.963 2.6 75 16.2 100760 44
2010-08-05 04:04:51 51°13.662 2°55.963 3.1 24 16.2 100760 45
2010-08-05 04:04:55 51°13.662 2°55.963 3.8 83 16.2 100760 45
2010-08-05 04:05:00 51°13.662 2°55.962 3.6 22 16.2 100760 43
2010-08-05 04:05:05 51°13.662 2°55.962 3.2 82 16.2 100760 43
2010-08-05 04:05:11 51°13.662 2°55.962 2.3 23 16.2 100760 43
2010-08-05 04:05:15 51°13.662 2°55.962 5 75 16.2 100760 43
2010-08-05 04:05:20 51°13.662 2°55.962 4.2 28 16.2 100760 43
2010-08-05 04:05:25 51°13.662 2°55.962 4.2 77 16.2 100760 43
2010-08-05 04:05:31 51°13.662 2°55.962 3.6 21 16.2 100760 44
2010-08-05 04:05:35 51°13.662 2°55.962 1.9 77 16.2 100760 44
2010-08-05 04:05:40 51°13.662 2°55.962 2.8 29 16.2 100760 44
2010-08-05 04:05:45 51°13.662 2°55.962 3.4 76 16.2 100760 44
2010-08-05 04:05:50 51°13.662 2°55.962 3.5 22 16.2 100760 43
2010-08-05 04:05:55 51°13.662 2°55.962 3 76 16.2 100760 43
2010-08-05 04:06:01 51°13.662 2°55.962 3.1 23 16.2 100760 44
2010-08-05 04:06:05 51°13.662 2°55.962 2.6 83 16.2 100760 44
2010-08-05 04:06:10 51°13.662 2°55.962 2.4 23 16.1 100760 42
2010-08-05 04:06:15 51°13.662 2°55.962 3.3 82 16.1 100760 42
2010-08-05 04:06:20 51°13.662 2°55.962 2.7 26 16.1 100760 44
2010-08-05 04:06:26 51°13.662 2°55.962 2.4 80 16.1 100760 44
2010-08-05 04:06:30 51°13.662 2°55.962 3.5 18 16.1 100760 43
2010-08-05 04:06:36 51°13.662 2°55.962 2.7 76 16.1 100760 43
2010-08-05 04:06:40 51°13.662 2°55.962 2.7 29 16.2 100760 43
2010-08-05 04:06:45 51°13.662 2°55.962 2.2 77 16.2 100760 43
2010-08-05 04:06:50 51°13.662 2°55.962 1.5 23 16.2 100760 43
2010-08-05 04:06:55 51°13.662 2°55.962 2.9 82 16.2 100760 43
2010-08-05 04:07:00 51°13.662 2°55.962 2.8 19 16.2 100760 44
2010-08-05 04:07:05 51°13.662 2°55.962 4.1 76 16.2 100760 44
2010-08-05 04:07:10 51°13.662 2°55.962 4.6 21 16.2 100760 43
2010-08-05 04:07:15 51°13.662 2°55.962 3.2 81 16.2 100760 43
2010-08-05 04:07:20 51°13.662 2°55.962 2.6 29 16.2 100760 43
2010-08-05 04:07:25 51°13.662 2°55.962 3.6 81 16.2 100760 43
2010-08-05 04:07:30 51°13.662 2°55.962 5 23 16.2 100760 45
2010-08-05 04:07:35 51°13.662 2°55.962 5.1 77 16.2 100760 45
2010-08-05 04:07:40 51°13.662 2°55.962 3.3 29 16.2 100760 44
2010-08-05 04:07:45 51°13.662 2°55.962 4.6 81 16.2 100760 44
2010-08-05 04:07:51 51°13.662 2°55.962 4.3 21 16.2 100760 43
2010-08-05 04:07:55 51°13.662 2°55.962 4.7 76 16.2 100760 43
2010-08-05 04:08:00 51°13.662 2°55.962 3.9 23 16.2 100760 44
2010-08-05 04:08:05 51°13.662 2°55.962 4.5 82 16.2 100760 44
2010-08-05 04:08:10 51°13.662 2°55.962 3.9 24 16.2 100760 43
2010-08-05 04:08:15 51°13.662 2°55.962 3 82 16.2 100760 43
2010-08-05 04:08:20 51°13.662 2°55.962 2.7 27 16.2 100760 44
2010-08-05 04:08:25 51°13.662 2°55.962 2.3 76 16.2 100760 44
2010-08-05 04:08:30 51°13.662 2°55.962 3.4 21 16.2 100760 44
2010-08-05 04:08:35 51°13.662 2°55.962 5.1 77 16.2 100760 44
2010-08-05 04:08:40 51°13.662 2°55.962 3 20 16.2 100760 43
2010-08-05 04:08:45 51°13.662 2°55.962 3 76 16.2 100760 43
2010-08-05 04:08:50 51°13.662 2°55.962 3.6 22 16.2 100760 42
2010-08-05 04:08:55 51°13.662 2°55.962 3.6 75 16.2 100760 42
2010-08-05 04:09:00 51°13.662 2°55.962 3.5 21 16.2 100760 45
2010-08-05 04:09:05 51°13.662 2°55.962 3.1 77 16.2 100760 45
2010-08-05 04:09:10 51°13.662 2°55.962 3.5 26 16.2 100760 44
2010-08-05 04:09:15 51°13.662 2°55.962 2.5 74 16.2 100760 44
2010-08-05 04:09:20 51°13.662 2°55.962 3.1 29 16.2 100760 43
2010-08-05 04:09:25 51°13.662 2°55.962 3.9 77 16.2 100760 43
2010-08-05 04:09:30 51°13.662 2°55.962 3.6 28 16.2 100760 43
2010-08-05 04:09:35 51°13.662 2°55.962 2.8 80 16.2 100760 43
2010-08-05 04:09:40 51°13.662 2°55.962 2.3 22 16.2 100760 43
2010-08-05 04:09:45 51°13.662 2°55.962 2.5 79 16.2 100760 43
2010-08-05 04:09:50 51°13.662 2°55.962 2.5 21 16.2 100760 43
2010-08-05 04:09:55 51°13.662 2°55.962 1.7 74 16.2 100760 43
2010-08-05 04:10:00 51°13.662 2°55.962 3 21 16.2 100760 44
2010-08-05 04:10:05 51°13.662 2°55.962 2.9 77 16.2 100760 44
2010-08-05 04:10:10 51°13.662 2°55.962 3.9 22 16.2 100760 43
2010-08-05 04:10:15 51°13.662 2°55.962 2.1 81 16.2 100760 43
2010-08-05 04:10:20 51°13.662 2°55.961 3.2 24 16.2 100760 45
2010-08-05 04:10:25 51°13.662 2°55.961 2.1 77 16.2 100760 45
2010-08-05 04:10:30 51°13.662 2°55.961 2.4 26 16.2 100760 43
2010-08-05 04:10:35 51°13.662 2°55.961 3.1 76 16.2 100760 43
2010-08-05 04:10:40 51°13.662 2°55.961 2.3 26 16.1 100760 43
2010-08-05 04:10:45 51°13.662 2°55.961 3 77 16.1 100760 43
2010-08-05 04:10:50 51°13.662 2°55.961 2.7 22 16.2 100760 45
2010-08-05 04:10:55 51°13.662 2°55.961 2.2 76 16.2 100760 45
2010-08-05 04:11:00 51°13.662 2°55.961 1.6 27 16.2 100760 43
2010-08-05 04:11:05 51°13.662 2°55.961 1.9 77 16.2 100760 43
2010-08-05 04:11:10 51°13.662 2°55.961 2.4 29 16.2 100760 43
2010-08-05 04:11:15 51°13.662 2°55.961 0.7 83 16.2 100760 43
2010-08-05 04:11:20 51°13.663 2°55.961 0.6 21 16.2 100760 45
2010-08-05 04:11:25 51°13.662 2°55.961 3.7 82 16.2 100760 45
2010-08-05 04:11:30 51°13.662 2°55.962 2.9 22 16.2 100760 43
2010-08-05 04:11:35 51°13.662 2°55.962 3.9 -999 16.2 100760 43
2010-08-05 04:11:40 51°13.662 2°55.961 4.5 21 16.2 100760 44
2010-08-05 04:11:46 51°13.662 2°55.961 3.1 78 16.2 100760 44
2010-08-05 04:11:50 51°13.662 2°55.961 3.6 23 16.2 100760 44
2010-08-05 04:11:55 51°13.663 2°55.961 3.7 82 16.2 100760 44
2010-08-05 04:12:00 51°13.663 2°55.961 3.8 29 16.2 100760 43
2010-08-05 04:12:05 51°13.663 2°55.961 2.8 78 16.2 100760 43
2010-08-05 04:12:10 51°13.663 2°55.961 4.2 23 16.2 100760 44
2010-08-05 04:12:15 51°13.663 2°55.961 2.6 78 16.2 100760 44
2010-08-05 04:12:20 51°13.663 2°55.961 2.1 29 16.2 100760 44
2010-08-05 04:12:25 51°13.663 2°55.961 2.7 79 16.2 100760 44
2010-08-05 04:12:30 51°13.663 2°55.961 1.7 27 16.2 100760 43
2010-08-05 04:12:35 51°13.663 2°55.961 2.9 -999 16.2 100760 43
2010-08-05 04:12:40 51°13.662 2°55.961 2.7 28 16.2 100770 43
2010-08-05 04:12:45 51°13.662 2°55.961 1.4 81 16.2 100770 43
2010-08-05 04:12:50 51°13.663 2°55.96 2.3 26 16.2 100760 43
2010-08-05 04:12:55 51°13.663 2°55.96 2.7 74 16.2 100760 43
2010-08-05 04:13:00 51°13.663 2°55.96 2.2 27 16.2 100760 45
2010-08-05 04:13:05 51°13.663 2°55.96 3.7 76 16.2 100760 45
2010-08-05 04:13:10 51°13.663 2°55.96 3.1 28 16.2 100760 43
2010-08-05 04:13:15 51°13.663 2°55.96 4.5 79 16.2 100760 43
2010-08-05 04:13:20 51°13.663 2°55.96 2.7 27 16.2 100770 44
2010-08-05 04:13:25 51°13.663 2°55.961 3.1 75 16.2 100770 44
2010-08-05 04:13:30 51°13.663 2°55.96 2.8 27 16.2 100760 43
2010-08-05 04:13:35 51°13.663 2°55.96 3.8 81 16.2 100760 43
2010-08-05 04:13:40 51°13.662 2°55.96 3.4 22 16.2 100760 43
2010-08-05 04:13:45 51°13.662 2°55.96 3.9 75 16.2 100760 43
2010-08-05 04:13:50 51°13.662 2°55.96 2.3 28 16.1 100770 44
2010-08-05 04:13:55 51°13.662 2°55.96 2.6 81 16.1 100770 44
2010-08-05 04:14:01 51°13.662 2°55.96 3.4 22 16.2 100760 43
2010-08-05 04:14:06 51°13.662 2°55.96 3.9 76 16.2 100760 43
2010-08-05 04:14:10 51°13.662 2°55.96 3.3 21 16.1 100770 41
2010-08-05 04:14:15 51°13.662 2°55.96 3.9 76 16.1 100770 41
2010-08-05 04:14:20 51°13.662 2°55.96 3.2 30 16.1 100770 43
2010-08-05 04:14:26 51°13.662 2°55.96 3.6 82 16.1 100770 43
2010-08-05 04:14:30 51°13.662 2°55.96 3.1 29 16.1 100770 43
2010-08-05 04:14:53 51°13.663 2°55.96 3.6 21 16.1 100770 43
2010-08-05 04:14:58 51°13.663 2°55.96 3.3 33 16.1 100770 43
2010-08-05 04:16:46 51°13.662 2°55.96 4.5 54 16.1 100770 45
2010-08-05 04:16:47 51°13.662 2°55.96 4.5 54 16.1 100770 45
2010-08-05 04:17:07 51°13.662 2°55.96 4 53 16.2 100770 42
2010-08-05 04:17:12 51°13.662 2°55.96 2.9 23 16.2 100770 44
2010-08-05 04:17:18 51°13.662 2°55.96 4.6 55 16.2 100770 44